Location: Chateh
(58.6667°N, 118.6000°W)
Time: 17:22:52
(UTC+00:00)

Gurwin Techsat 1B - Pass Details

Date: 04 December 2023
Orbit: 810 x 813 km, 98.9° (Epoch: 21 February)

Event Time Altitude Azimuth Distance (km) Brightness Sun altitude
Rises 11:59:05 0° 17° (NNE) 3,352 12.1 -32.5°
Reaches altitude 10° 12:01:26 10° 16° (NNE) 2,417 11.3 -32.2°
Enters shadow 12:03:47 27° 12° (NNE) 1,525 10.1 -31.9°
